BCS4127 LOWL-EDDP

Flight info

Callsign BCS4127
Flight time 0h 45m
Altitude 30000
Route LIDSI DCT LAMSI L604 RUDNO M736 AKOSI DCT TABAT/N0440F290 T952 GOXLI GOXLI1V
Aircraft A321/M-SDE3FGHIRWY/LB1

Departure

Time 2026-04-20 15:36
Airport Linz-Hörsching Airport (LOWL)

Arrival

Time 2026-04-20 16:21
Airport Leipzig/Halle Airport (EDDP)
Time Latitude Longitude Altitude Speed Heading
2026-04-20 15:22 48.23879 14.19141 974 ft 0 kts 87°
2026-04-20 15:32 48.23879 14.19142 973 ft 1 kts 87°
2026-04-20 15:32 48.23869 14.19198 973 ft 7 kts 133°
2026-04-20 15:33 48.23834 14.19208 978 ft 4 kts 173°
2026-04-20 15:33 48.23804 14.19211 976 ft 8 kts 176°
2026-04-20 15:33 48.23756 14.19288 976 ft 16 kts 96°
2026-04-20 15:33 48.23764 14.19457 974 ft 16 kts 88°
2026-04-20 15:34 48.23740 14.19601 976 ft 15 kts 143°
2026-04-20 15:34 48.23648 14.19657 968 ft 14 kts 158°
2026-04-20 15:34 48.23565 14.19705 968 ft 12 kts 159°
2026-04-20 15:34 48.23491 14.19750 970 ft 13 kts 156°
2026-04-20 15:35 48.23385 14.19755 980 ft 17 kts 223°
2026-04-20 15:35 48.23340 14.19416 982 ft 66 kts 268°
2026-04-20 15:35 48.23309 14.18391 982 ft 127 kts 268°
2026-04-20 15:35 48.23268 14.16897 1348 ft 145 kts 269°
2026-04-20 15:36 48.23206 14.15445 2246 ft 135 kts 269°
2026-04-20 15:36 48.23150 14.14065 2993 ft 131 kts 277°
2026-04-20 15:36 48.23535 14.12807 3287 ft 146 kts 316°
2026-04-20 15:36 48.24367 14.11745 3500 ft 168 kts 318°
2026-04-20 15:37 48.25311 14.10539 3665 ft 188 kts 318°
2026-04-20 15:37 48.26373 14.09177 3810 ft 214 kts 318°
2026-04-20 15:37 48.27562 14.07647 4102 ft 237 kts 318°
2026-04-20 15:37 48.28848 14.05987 4712 ft 247 kts 318°
2026-04-20 15:38 48.30160 14.04296 5491 ft 250 kts 318°
2026-04-20 15:38 48.31490 14.02580 6310 ft 253 kts 318°
2026-04-20 15:38 48.32825 14.00857 7092 ft 255 kts 317°
2026-04-20 15:38 48.34178 13.99107 7842 ft 257 kts 316°
2026-04-20 15:39 48.35540 13.97341 8607 ft 260 kts 316°
2026-04-20 15:39 48.36911 13.95559 9386 ft 262 kts 316°
2026-04-20 15:39 48.38297 13.93755 10054 ft 265 kts 316°
2026-04-20 15:39 48.39734 13.91884 10329 ft 284 kts 315°
2026-04-20 15:40 48.41284 13.89855 10460 ft 306 kts 316°
2026-04-20 15:40 48.42949 13.87675 10593 ft 327 kts 316°
2026-04-20 15:40 48.44692 13.85399 11050 ft 336 kts 316°
2026-04-20 15:40 48.46468 13.83085 11632 ft 339 kts 316°
2026-04-20 15:41 48.48258 13.80754 12295 ft 342 kts 317°
2026-04-20 15:41 48.50064 13.78394 12951 ft 344 kts 317°
2026-04-20 15:41 48.51879 13.76018 13577 ft 347 kts 317°
2026-04-20 15:41 48.53708 13.73621 14143 ft 349 kts 317°
2026-04-20 15:42 48.55549 13.71211 14681 ft 352 kts 317°
2026-04-20 15:42 48.57400 13.68780 15236 ft 354 kts 316°
2026-04-20 15:42 48.59268 13.66324 15785 ft 357 kts 316°
2026-04-20 15:42 48.61149 13.63850 16286 ft 360 kts 316°
2026-04-20 15:43 48.63044 13.61362 16791 ft 362 kts 316°
2026-04-20 15:43 48.64952 13.58852 17267 ft 365 kts 316°
2026-04-20 15:43 48.66834 13.56265 17743 ft 367 kts 314°
2026-04-20 15:43 48.68670 13.53570 18192 ft 369 kts 313°
2026-04-20 15:44 48.70486 13.50809 18617 ft 371 kts 313°
2026-04-20 15:44 48.72299 13.48016 19040 ft 373 kts 312°
2026-04-20 15:44 48.74123 13.45213 19472 ft 374 kts 312°
2026-04-20 15:44 48.75957 13.42415 19907 ft 376 kts 313°
2026-04-20 15:45 48.77815 13.39601 20344 ft 378 kts 313°
2026-04-20 15:45 48.79687 13.36777 20766 ft 380 kts 313°
2026-04-20 15:45 48.81567 13.33950 21216 ft 382 kts 313°
2026-04-20 15:45 48.83457 13.31107 21654 ft 384 kts 313°
2026-04-20 15:46 48.85230 13.28429 22045 ft 386 kts 313°
2026-04-20 15:46 48.87136 13.25543 22468 ft 389 kts 313°
2026-04-20 15:46 48.89057 13.22630 22886 ft 391 kts 313°
2026-04-20 15:46 48.90982 13.19706 23291 ft 393 kts 313°
2026-04-20 15:47 48.92926 13.16753 23665 ft 396 kts 313°
2026-04-20 15:47 48.94874 13.13792 23993 ft 398 kts 313°
2026-04-20 15:47 48.96833 13.10812 24350 ft 399 kts 313°
2026-04-20 15:47 48.98133 13.08831 24590 ft 400 kts 313°
2026-04-20 15:48 49.00100 13.05824 24922 ft 401 kts 313°
2026-04-20 15:48 49.02096 13.02762 25268 ft 403 kts 313°
2026-04-20 15:48 49.04072 12.99730 25606 ft 404 kts 313°
2026-04-20 15:48 49.06032 12.96725 25937 ft 406 kts 313°
2026-04-20 15:49 49.08052 12.93624 26265 ft 407 kts 313°
2026-04-20 15:49 49.10022 12.90594 26582 ft 409 kts 313°
2026-04-20 15:49 49.12028 12.87510 26896 ft 410 kts 313°
2026-04-20 15:49 49.14040 12.84414 27194 ft 411 kts 313°
2026-04-20 15:50 49.16060 12.81309 27471 ft 413 kts 313°
2026-04-20 15:50 49.18084 12.78189 27719 ft 414 kts 313°
2026-04-20 15:50 49.18764 12.77138 27805 ft 414 kts 313°
2026-04-20 15:50 49.19291 12.76325 27858 ft 415 kts 313°
2026-04-20 15:51 49.21239 12.73276 27993 ft 415 kts 313°
2026-04-20 15:51 49.23275 12.70118 28212 ft 417 kts 313°
2026-04-20 15:51 49.25321 12.66959 28408 ft 418 kts 313°
2026-04-20 15:51 49.27392 12.63764 28700 ft 418 kts 313°
2026-04-20 15:52 49.29432 12.60603 28997 ft 417 kts 313°
2026-04-20 15:52 49.31467 12.57444 29302 ft 416 kts 313°
2026-04-20 15:52 49.33487 12.54358 29599 ft 415 kts 316°
2026-04-20 15:53 49.37988 12.48790 30035 ft 413 kts 319°
2026-04-20 15:53 49.40208 12.46097 30062 ft 406 kts 319°
2026-04-20 15:53 49.44634 12.40722 30065 ft 404 kts 319°
2026-04-20 15:54 49.49015 12.35379 30069 ft 403 kts 319°
2026-04-20 15:54 49.51398 12.33043 30068 ft 408 kts 333°
2026-04-20 15:54 49.54143 12.31828 30062 ft 417 kts 349°
2026-04-20 15:55 49.60014 12.31821 30068 ft 423 kts 356°
2026-04-20 15:55 49.65902 12.32063 30073 ft 423 kts 357°
2026-04-20 15:56 49.71793 12.32290 30075 ft 423 kts 357°
2026-04-20 15:56 49.77681 12.32474 30073 ft 423 kts 357°
2026-04-20 15:57 49.83573 12.32661 30072 ft 423 kts 357°
2026-04-20 15:57 49.89455 12.32854 30069 ft 423 kts 358°
2026-04-20 15:58 49.95340 12.33043 30076 ft 423 kts 358°
2026-04-20 15:58 50.01221 12.33239 30079 ft 423 kts 358°
2026-04-20 15:59 50.07103 12.33567 30070 ft 425 kts
2026-04-20 15:59 50.12939 12.35305 29910 ft 430 kts 10°
2026-04-20 16:00 50.15850 12.36379 29616 ft 430 kts 11°
2026-04-20 16:00 50.18770 12.37473 29333 ft 429 kts 11°
2026-04-20 16:00 50.21666 12.38568 29050 ft 429 kts 11°
2026-04-20 16:00 50.24560 12.39667 28592 ft 424 kts 12°
2026-04-20 16:01 50.27411 12.40744 27982 ft 419 kts 12°
2026-04-20 16:01 50.30225 12.41803 27363 ft 414 kts 13°
2026-04-20 16:01 50.33006 12.42853 26755 ft 409 kts 13°
2026-04-20 16:01 50.35757 12.43891 26136 ft 404 kts 13°
2026-04-20 16:02 50.38480 12.44916 25530 ft 400 kts 14°
2026-04-20 16:02 50.41133 12.45917 24940 ft 396 kts 14°
2026-04-20 16:02 50.43835 12.46934 24345 ft 392 kts 14°
2026-04-20 16:03 50.45821 12.47974 25069 ft 257 kts 28°
2026-04-20 16:04 50.47450 12.49293 24976 ft 283 kts 23°
2026-04-20 16:04 50.49512 12.50315 23808 ft 339 kts 13°
2026-04-20 16:04 50.51940 12.50962 22704 ft 363 kts 10°
2026-04-20 16:04 50.54416 12.51491 21991 ft 365 kts
2026-04-20 16:05 50.56936 12.52087 21518 ft 366 kts 11°
2026-04-20 16:05 50.59434 12.52812 21022 ft 365 kts 13°
2026-04-20 16:05 50.61908 12.53655 20542 ft 363 kts 14°
2026-04-20 16:05 50.64357 12.54577 20049 ft 361 kts 15°
2026-04-20 16:06 50.66733 12.55512 19605 ft 359 kts 15°
2026-04-20 16:06 50.69157 12.56476 19148 ft 358 kts 15°
2026-04-20 16:06 50.71561 12.57429 18718 ft 356 kts 15°
2026-04-20 16:06 50.73936 12.58362 18269 ft 355 kts 14°
2026-04-20 16:07 50.76330 12.59286 17824 ft 353 kts 14°
2026-04-20 16:07 50.78713 12.60197 17407 ft 352 kts 14°
2026-04-20 16:07 50.81087 12.61106 16997 ft 350 kts 14°
2026-04-20 16:07 50.83450 12.62008 16596 ft 349 kts 14°
2026-04-20 16:08 50.85802 12.62909 16190 ft 347 kts 14°
2026-04-20 16:08 50.88138 12.63811 15771 ft 345 kts 14°
2026-04-20 16:08 50.90435 12.64697 15364 ft 343 kts 14°
2026-04-20 16:08 50.92745 12.65585 14940 ft 341 kts 14°
2026-04-20 16:09 50.95049 12.66473 14508 ft 339 kts 14°
2026-04-20 16:09 50.97335 12.67357 14068 ft 337 kts 14°
2026-04-20 16:09 50.99605 12.68234 13583 ft 335 kts 14°
2026-04-20 16:09 51.01861 12.69104 13139 ft 333 kts 14°
2026-04-20 16:10 51.04106 12.69976 12666 ft 331 kts 14°
2026-04-20 16:10 51.06337 12.70845 12194 ft 329 kts 14°
2026-04-20 16:10 51.08479 12.71680 11725 ft 327 kts 14°
2026-04-20 16:10 51.10685 12.72539 11245 ft 325 kts 14°
2026-04-20 16:11 51.12831 12.73373 10963 ft 315 kts 14°
2026-04-20 16:11 51.14846 12.74155 10833 ft 301 kts 14°
2026-04-20 16:11 51.16830 12.74926 10697 ft 287 kts 14°
2026-04-20 16:11 51.18731 12.75667 10506 ft 277 kts 14°
2026-04-20 16:12 51.20583 12.76387 10272 ft 272 kts 14°
2026-04-20 16:12 51.22418 12.77103 10021 ft 271 kts 14°
2026-04-20 16:12 51.24245 12.77818 9847 ft 270 kts 14°
2026-04-20 16:12 51.26077 12.78535 9709 ft 270 kts 14°
2026-04-20 16:13 51.27899 12.79251 9570 ft 270 kts 14°
2026-04-20 16:13 51.29713 12.79965 9438 ft 269 kts 14°
2026-04-20 16:13 51.31540 12.80656 9070 ft 269 kts 10°
2026-04-20 16:13 51.33402 12.80812 8595 ft 269 kts 358°
2026-04-20 16:14 51.35268 12.80601 8128 ft 268 kts 358°
2026-04-20 16:14 51.37019 12.80411 7698 ft 267 kts 358°
2026-04-20 16:14 51.38862 12.80210 7254 ft 265 kts 358°
2026-04-20 16:14 51.40697 12.79959 6873 ft 263 kts 351°
2026-04-20 16:15 51.42339 12.78762 6476 ft 267 kts 323°
2026-04-20 16:15 51.43398 12.76284 6028 ft 275 kts 290°
2026-04-20 16:15 51.43580 12.73216 5551 ft 280 kts 269°
2026-04-20 16:15 51.43398 12.70094 5066 ft 281 kts 267°
2026-04-20 16:16 51.43230 12.67058 4982 ft 265 kts 269°
2026-04-20 16:16 51.43107 12.64222 4990 ft 248 kts 270°
2026-04-20 16:16 51.42994 12.61489 4946 ft 245 kts 270°
2026-04-20 16:16 51.42883 12.58858 4692 ft 242 kts 270°
2026-04-20 16:17 51.42767 12.56178 4372 ft 241 kts 270°
2026-04-20 16:17 51.42651 12.53507 4042 ft 240 kts 270°
2026-04-20 16:17 51.42534 12.50832 3713 ft 241 kts 270°
2026-04-20 16:17 51.42416 12.48142 3381 ft 242 kts 270°
2026-04-20 16:18 51.42297 12.45477 3066 ft 239 kts 270°
2026-04-20 16:18 51.42179 12.42839 2719 ft 234 kts 270°
2026-04-20 16:18 51.42065 12.40312 2409 ft 220 kts 270°
2026-04-20 16:18 51.41959 12.37937 2106 ft 209 kts 270°
2026-04-20 16:19 51.41859 12.35756 1843 ft 192 kts 270°
2026-04-20 16:19 51.41766 12.33695 1563 ft 179 kts 270°
2026-04-20 16:19 51.41679 12.31780 1327 ft 164 kts 270°
2026-04-20 16:19 51.41600 12.30047 1074 ft 148 kts 269°
2026-04-20 16:20 51.41527 12.28470 886 ft 138 kts 269°
2026-04-20 16:20 51.41459 12.26956 732 ft 136 kts 269°
2026-04-20 16:20 51.41396 12.25457 523 ft 134 kts 269°
2026-04-20 16:20 51.41333 12.24068 469 ft 109 kts 266°
2026-04-20 16:21 51.41293 12.23149 465 ft 59 kts 265°
2026-04-20 16:21 51.41250 12.22749 460 ft 21 kts 245°
2026-04-20 16:21 51.41191 12.22575 457 ft 10 kts 239°
2026-04-20 16:21 51.41151 12.22522 457 ft 5 kts 200°
2026-04-20 16:22 51.41131 12.22517 457 ft 1 kts 181°
2026-04-20 16:22 51.41095 12.22567 457 ft 13 kts 117°
2026-04-20 16:22 51.41093 12.22683 459 ft 7 kts 86°
2026-04-20 16:22 51.41099 12.22814 461 ft 18 kts 86°
2026-04-20 16:23 51.41106 12.23000 465 ft 11 kts 85°
2026-04-20 16:23 51.41111 12.23086 466 ft 5 kts 85°
2026-04-20 16:23 51.41114 12.23154 467 ft 11 kts 85°
2026-04-20 16:23 51.41094 12.23263 467 ft 8 kts 147°
2026-04-20 16:24 51.41037 12.23354 470 ft 17 kts 103°
2026-04-20 16:24 51.41042 12.23478 469 ft 9 kts 84°
2026-04-20 16:24 51.41047 12.23566 468 ft 10 kts 85°
2026-04-20 16:24 51.41027 12.23643 471 ft 5 kts 147°
2026-04-20 16:25 51.40976 12.23656 470 ft 11 kts 182°
2026-04-20 16:25 51.40958 12.23587 469 ft 6 kts 263°
2026-04-20 16:25 51.40956 12.23552 469 ft 1 kts 264°
2026-04-20 16:25 51.40955 12.23539 469 ft 0 kts 265°